Miscellaneous Local Product
Issued by NWS Hastings, NE

Home | Current Version | Previous Version | Graphics & Text | Print | Product List | Glossary On
Versions: 1 2 3 4 5 6 7 8 9 10 11 12 13 14 15 16 17 18 19 20 21 22 23 24 25 26 27 28 29 30 31 32 33 34 35 36 37 38 39 40 41 42 43 44 45 46 47 48 49 50
000
AXUS43 KGID 300802
MISGRI

GID CWA HOURLY WEATHER ROUNDUP
NATIONAL WEATHER SERVICE HASTINGS NE
300 AM CDT THU JUL 30 2015

NOTE: "FAIR" INDICATES FEW OR NO CLOUDS BELOW 12,000 FEET WITH NO
SIGNIFICANT WEATHER AND/OR OBSTRUCTIONS TO VISIBILITY.

...SOUTH CENTRAL NEBRASKA...

CITY           SKY/WX    TMP DP  RH WIND       PRES   REMARKS
GRAND ISLAND   CLEAR     62  55  77 SW3       30.22S
HASTINGS       CLEAR     61  54  77 CALM      30.23S
KEARNEY        CLEAR     63  52  67 SW7       30.23S
ORD            CLEAR     58  53  84 CALM      30.20R
YORK           CLEAR     57  55  94 W7        30.20S
AURORA         CLEAR     57  55  94 SW7       30.21S
LEXINGTON      CLEAR     61  55  81 CALM      30.24S
HOLDREGE       CLEAR     60  51  73 CALM      30.24S
HEBRON         CLEAR     60  57  91 CALM      30.21R

...NEBRASKA PANHANDLE...

CITY           SKY/WX    TMP DP  RH WIND       PRES   REMARKS
CHADRON        CLEAR     56  50  80 CALM      30.21R
ALLIANCE       PTCLDY    57  48  72 S6        30.25R
SCOTTSBLUFF    CLEAR     61  51  70 NE7       30.25S
SIDNEY         CLEAR     62  48  60 S12       30.28S

...WESTERN AND NORTH CENTRAL NEBRASKA...

CITY           SKY/WX    TMP DP  RH WIND       PRES   REMARKS
VALENTINE      CLEAR     58  51  78 SW6       30.20F
AINSWORTH      CLEAR     64  55  72 NW3       30.21S
ONEILL         CLEAR     63  54  74 SW6       30.19S
BROKEN BOW     CLEAR     57  53  86 W3        30.23S
IMPERIAL       CLEAR     63  52  67 S8        30.26S
NORTH PLATTE   CLEAR     57  53  86 CALM      30.25S
MCCOOK         CLEAR     59  53  80 CALM      30.25S

...EASTERN NEBRASKA...

CITY           SKY/WX    TMP DP  RH WIND       PRES   REMARKS
NORFOLK        CLEAR     63  56  78 CALM      30.17S
SO SIOUX CITY  CLEAR     66  58  75 W6        30.14R
TEKAMAH        CLEAR     64  59  83 CALM      30.15S
COLUMBUS       CLEAR     59  54  82 CALM      30.19S
ALBION         CLEAR     64  53  66 CALM      30.19S
OMAHA EPPLEY   CLEAR     67  60  78 SE3       30.16S
OFFUTT AFB     CLEAR     59  58  97 S1        30.16S
MILLARD        CLEAR     63  60  90 CALM      30.17R
LINCOLN        CLEAR     61  58  90 CALM      30.19S
NEBRASKA CITY  CLEAR     63  57  81 SW6       30.18S
BEATRICE       FAIR      60  58  95 CALM      30.20R
FALLS CITY     CLEAR     65  64  97 CALM      30.17S

...NORTHERN KANSAS...

CITY           SKY/WX    TMP DP  RH WIND       PRES   REMARKS
GOODLAND       PTCLDY    61  57  87 S9        30.29S
HILL CITY      CLOUDY    67  62  84 E3        30.25S
NORTON         SUNNY     57  54  88 CALM      30.24S
PHILLIPSBURG   CLEAR     64  63  94 CALM      30.23F
SMITH CENTER   CLEAR     63  55  77 CALM      30.23S
HAYS           PTCLDY    66  55  68 E5        30.23R
RUSSELL        PTCLDY    67  60  78 NE6       30.20S
CONCORDIA      CLEAR     63  61  93 CALM      30.21R
SALINA         MOCLDY    73  65  75 E3        30.19S
TOPEKA         CLEAR     67  66  97 CALM      30.18S



USA.gov is the U.S. government's official web portal to all federal, state and local government web resources and services.